Location: Congrier
(47.8099°N, 1.1170°W)
Time: 20:34:10
(UTC+00:00)

CZ-6A DEB - Visible Passes

Search period start: 21 February 2024 00:00
Search period end: 02 March 2024 00:00
Orbit: 825 x 838 km, 98.8° (Epoch: 21 February)

Date Brightness Start Highest point End Pass type
(mag) Time Alt. Az. Time Alt. Az. Time Alt. Az.
21 Feb ? 05:51:49 10° NNE 05:56:41 32° E 06:01:29 10° SSE visible
21 Feb ? 19:01:24 10° SW 19:04:58 18° W 19:08:33 10° NW visible
22 Feb ? 05:34:49 10° NE 05:39:08 24° E 05:43:24 10° SE visible
22 Feb ? 18:43:00 10° SW 18:47:22 24° W 18:51:46 10° NW visible
23 Feb ? 05:18:03 10° NE 05:21:32 17° E 05:24:58 10° SE visible
23 Feb ? 18:24:56 10° SSW 18:29:49 33° W 18:34:44 10° NNW visible
24 Feb ? 05:01:53 10° ENE 05:03:52 12° E 05:05:50 10° ESE visible
24 Feb ? 18:07:06 10° S 18:12:19 46° W 18:17:33 10° NNW visible
25 Feb ? 06:22:15 10° NNE 06:27:37 57° E 06:32:55 10° S visible
26 Feb ? 06:05:01 10° NNE 06:10:08 41° E 06:15:12 10° SSE visible
26 Feb ? 19:15:55 10° WSW 19:18:31 13° W 19:21:09 10° WNW visible
27 Feb ? 05:47:53 10° NE 05:52:36 30° E 05:57:18 10° SSE visible
27 Feb ? 18:57:05 10° SW 19:00:52 19° W 19:04:40 10° NW visible
28 Feb ? 05:30:54 10° NE 05:35:01 22° E 05:39:08 10° SE visible
28 Feb ? 18:38:46 10° SSW 18:43:16 26° W 18:47:48 10° NW visible
29 Feb ? 05:14:12 10° NE 05:17:23 16° E 05:20:33 10° SE visible
29 Feb ? 18:20:45 10° SSW 18:25:43 36° W 18:30:43 10° NNW visible
01 Mar ? 04:58:26 10° ENE 04:59:42 11° E 05:00:58 10° E visible
